Flag for Germany Weather past 2 weeks in Bocholt, North Rhine-Westphalia, Germany

Now
70 °F

Passing clouds.


Feels Like: 70 °F
Forecast: 51 / 73 °F
Wind: 6 mph from Southeast

Location: Niederrhein


UV Index: 3 (Moderate)

Visibility: N/A


Pressure: 30.04 "Hg

Humidity: 46%

Dew point: 48 °F

Location of BocholtLocation

Historic Weather in Bocholt

°F

Bocholt temperature yesterday

Maximum temperature yesterday: 72 °F (at 3:20 PM)
Minimum temperature yesterday: 45 °F (at 6:20 AM)
Average temperature yesterday: 61 °F

Past Weeks' High & Low Weather Summary

 TemperatureHumidityPressure
High72 °F (Apr 20, 3:20 PM)100% (Apr 12, 4:50 AM)30.45 "Hg (Apr 12, 4:50 AM)
Low30 °F (Apr 16, 5:50 AM)27% (Apr 17, 5:50 PM)29.65 "Hg (Apr 21, 2:50 PM)
Average54 °F65%30.06 "Hg
* Reported Apr 9 2:20 PM — Apr 24 2:50 PM, Bocholt, Weather by CustomWeather, © 2014

Note: Actual official high and low records may vary slightly from our data, if they occured in-between our weather recording intervals... More about our weather records

Advertising

Historic Weather Conditions — Data for Previous 24 hours

 ConditionsComfort  
Time TempWeatherWind HumidityBarometerVisibility
2:50 PM
Apr 24
70 °FPassing clouds.5 mph46%30.07 "HgN/A
2:20 PM70 °FPassing clouds.7 mph46%30.07 "HgN/A
1:50 PM72 °FPassing clouds.7 mph47%30.07 "HgN/A
1:20 PM72 °FSunny.6 mph50%30.07 "Hg10 mi
12:50 PM70 °FSunny.5 mph46%30.09 "Hg10 mi
12:20 PM68 °FPassing clouds.5 mph53%30.09 "HgN/A
11:50 AM68 °FSunny.3 mph56%30.09 "Hg10 mi
11:20 AM68 °FSunny.2 mph56%30.09 "Hg10 mi
10:50 AM66 °FSunny.2 mph56%30.09 "Hg10 mi
10:20 AM63 °FPassing clouds.5 mph64%30.12 "HgN/A
9:50 AM63 °FPassing clouds.5 mph68%30.09 "HgN/A
9:20 AM59 °FPassing clouds.6 mph77%30.09 "HgN/A
8:50 AM57 °FSunny.2 mph82%30.09 "Hg10 mi
8:20 AM54 °FClear.3 mph94%30.09 "Hg10 mi
7:50 AM52 °FClear.3 mph94%30.09 "Hg10 mi
7:20 AM52 °FClear.3 mph94%30.09 "Hg10 mi
6:50 AM50 °FClear.3 mph100%30.09 "Hg10 mi
6:20 AM48 °FClear.3 mph100%30.09 "Hg4 mi
5:50 AM48 °FFog.5 mph100%30.09 "Hg3 mi
5:20 AM48 °FClear.2 mph94%30.09 "Hg4 mi
4:50 AM48 °FFog.3 mph100%30.09 "Hg3 mi
11:50 PM
Apr 23
55 °FClear.2 mph77%30.09 "Hg10 mi
11:20 PM57 °FClear.3 mph72%30.09 "Hg10 mi
10:50 PM59 °FClear.5 mph68%30.09 "Hg10 mi
10:20 PM61 °FSunny.3 mph63%30.12 "Hg10 mi
9:50 PM61 °FPassing clouds.5 mph63%30.09 "HgN/A
9:20 PM61 °FSunny.3 mph63%30.09 "Hg10 mi
8:50 PM63 °FSunny.3 mph52%30.09 "Hg10 mi
8:20 PM64 °FSunny.1 mph52%30.09 "Hg10 mi
7:50 PM70 °FSunny.2 mph38%30.07 "Hg10 mi
7:20 PM68 °FPassing clouds.6 mph40%30.07 "HgN/A
6:50 PM72 °FPassing clouds.7 mph33%30.07 "HgN/A
6:20 PM70 °FPassing clouds.6 mph35%30.07 "HgN/A
5:50 PM72 °FPassing clouds.6 mph36%30.07 "HgN/A
5:20 PM72 °FPassing clouds.7 mph36%30.07 "HgN/A
4:50 PM70 °FPassing clouds.7 mph40%30.07 "HgN/A
4:20 PM72 °FSunny.2 mph41%30.07 "Hg10 mi
Weather by CustomWeather, © 2014

See weather overview